Regional Weather Roundup
Issued by NWS

Home | Current Version | Previous Version | Graphics & Text | Print | Product List | Glossary On
Versions: 1 2 3 4 5 6 7 8 9 10 11 12 13 14 15 16 17 18 19 20 21 22 23 24 25 26 27 28 29 30 31 32 33 34 35 36 37 38 39 40 41 42 43 44 45 46 47 48 49 50
000
ASUS45 KABQ 290101
RWRNM
NEW MEXICO REGIONAL WEATHER ROUNDUP
NATIONAL WEATHER SERVICE ALBUQUERQUE NM
700 PM MDT THU JUL 28 2016

NOTE: "FAIR" MEANS FEW OR NO CLOUDS BELOW 12,000 FEET AGL WITH NO
       SIGNIFICANT WEATHER OR OBSTRUCTIONS TO VISION.

      THIS PRODUCT IS RELEASED AS TWO VERSIONS.  ONE VERSION NEAR
      THE TOP OF THE HOUR CONTAINING PRELIMINARY DATA FROM ALBUQUERQUE
      AND OTHER STATIONS.  A FINAL VERSION WITH ADDITIONAL DATA IS
      ISSUED ABOUT 10 MINUTES AFTER THE HOUR.

NMZ501-503-504-510>518-290200-
NORTHWEST PLATEAU/NORTHCENTRAL MOUNTAINS

CITY           SKY/WX    TMP DP  RH WIND       PRES   REMARKS
FARMINGTON     FAIR      96  32  10 VRB3      30.06F
LOS ALAMOS     FAIR      80  34  19 NW12G22   30.30S
SANTA FE       FAIR      90  37  15 N12G20    30.18S
TAOS           FAIR      81  37  21 SW15      30.25F
ANGEL FIRE     FAIR      73  34  24 W10G17    30.35S

$$
NMZ402-403-502-505>509-290200-
WESTCENTRAL MOUNTAINS/SOUTHWEST MOUNTAINS

CITY           SKY/WX    TMP DP  RH WIND       PRES   REMARKS
GALLUP         FAIR      88  37  16 S17       30.19S
GRANTS         FAIR      89  33  13 NE13      30.23S
SILVER CITY    FAIR      90  48  23 E10       30.12S

$$
NMZ407-409-411-412-290200-
SOUTHERN DESERTS

CITY           SKY/WX    TMP DP  RH WIND       PRES   REMARKS
LORDSBURG      FAIR      95  48  20 E6        30.01S
DEMING         FAIR      95  47  19 SE9       30.01S
LAS CRUCES     FAIR      95  40  15 SE10      30.03S
HOLLOMAN AFB   FAIR      97  47  18 W7        29.97
ALAMOGORDO     FAIR      95  46  18 SW3       30.00S
T OR C         FAIR      95  47  19 SE6       30.04F

$$
NMZ519>523-290200-
CENTRAL VALLEYS/CENTRAL HIGHLANDS

CITY           SKY/WX    TMP DP  RH WIND       PRES   REMARKS
ALBUQUERQUE    PTSUNNY   89  46  22 SE17      30.10S
DOUBLE EAGLE   PTSUNNY   90  46  22 SE12      30.14F
MORIARTY ARPT  FAIR      86  39  19 CALM      30.20F HAZE
CLINES CORNERS FAIR      81  45  28 S7        30.28S
BELEN          FAIR      91  40  16 SE8       30.08F
SOCORRO        FAIR      93  46  20 CALM      30.06F

$$
NMZ524>526-539-540-290200-
SOUTHCENTRAL MOUNTAINS

CITY           SKY/WX    TMP DP  RH WIND       PRES   REMARKS
RUIDOSO          N/A     79  41  25 SE9       30.29S

$$
NMZ527>531-290200-
NORTHEAST HIGHLANDS/NORTHEAST PLAINS

CITY           SKY/WX    TMP DP  RH WIND       PRES   REMARKS
LAS VEGAS      FAIR      82  39  21 SW9       30.24F
RATON          FAIR      77  49  37 NE10      30.18R
CLAYTON        FAIR      80  45  28 S30G44    30.09F

$$
NMZ532>537-290200-
EASTCENTRAL PLAINS

CITY           SKY/WX    TMP DP  RH WIND       PRES   REMARKS
TUCUMCARI      FAIR      93  51  23 S14G20    30.02R
CANNON AFB     FAIR      91  53  28 SE8       30.08
CLOVIS AIRPORT FAIR      90  52  27 S6        30.08R

$$
NMZ028-029-538-290200-
SOUTHEAST PLAINS

CITY           SKY/WX    TMP DP  RH WIND       PRES   REMARKS
ROSWELL        FAIR      96  50  20 NE5       29.98S
ARTESIA        FAIR      93  57  29 SE10G17   29.98S
CARLSBAD       FAIR      91  58  32 S15       29.97F
HOBBS          FAIR      90  55  31 SE9       30.03S


$$




USA.gov is the U.S. government's official web portal to all federal, state and local government web resources and services.